[[{"header":{"parameterUnit":"m.s-1","parameterCategory":1,"la1":30.2991,"la2":30.254,"lo1":-89.0895,"lo2":-89.0444,"dy":0.0017,"dx":0.0017,"nx":28,"ny":28,"refTime":"2025-03-12T09:00:00:Z","depth":0,"parameterNumber":2,"parameterNumberName":"U-component_of_WINDS"},"data":[0,0,0,0,0,0,0,0,0,0,0,0,0,0,0,0,0,0,0,0,0,0,0,0,0,0,0,0,0,0,0,0,0,0,0,0,0,0,0,0,0,0,0,0,0,0,0,0,0,0,0,0,0,0,0,0,0,0,3.1103,3.1104,0,3.1232,3.1234,3.1235,3.1189,3.1186,3.1183,3.118,3.1319,3.1325,3.1332,0,0,0,0,0,0,0,0,0,0,0,0,0,3.0821,3.0826,3.1103,3.1104,3.1106,3.1232,3.1234,3.1236,3.1189,3.1186,3.1182,3.1179,3.1317,3.1325,3.1332,0,0,0,0,0,0,0,0,0,0,0,0,0,3.0946,3.0828,3.1102,3.1098,3.1099,3.1232,3.1234,3.1236,3.119,3.1186,3.1181,3.1177,3.1314,3.1324,3.1333,3.148,0,0,3.1363,3.1367,0,0,0,0,0,0,0,0,3.0939,3.0957,3.1097,3.1098,3.11,3.119,3.1185,3.1318,3.1191,3.1156,3.118,3.1175,3.128,3.1292,3.1326,3.1487,3.1492,3.1363,3.1369,3.1373,3.1376,0,0,0,0,0,0,0,3.0931,3.0951,3.1154,3.1099,3.1101,3.1091,3.1104,3.121,3.1241,3.1158,3.1155,3.1171,3.128,3.1317,3.1329,3.1495,3.1363,3.1372,3.1378,3.1381,3.1782,3.1787,0,0,0,0,0,0,3.0921,3.0944,3.115,3.1158,3.1007,3.11,3.1114,3.1165,3.124,3.1247,3.1175,3.1168,3.1303,3.1318,3.1334,3.151,3.1373,3.1382,3.1388,3.1777,3.1783,3.1788,0,0,0,0,0,0,3.0915,3.0939,3.1145,3.105,3.1076,3.1109,3.1167,3.117,3.1207,3.1252,3.1258,3.1206,3.13,3.132,3.1444,3.1514,3.1387,3.1395,3.1771,3.1779,3.1786,3.1864,0,0,0,0,0,0,3.0907,3.0937,3.0992,3.1052,3.1081,3.1251,3.1171,3.1176,3.1223,3.1216,3.1283,3.129,3.1298,3.1429,3.1453,3.1525,3.1403,3.1765,3.1775,3.1783,3.1855,3.1873,3.1888,0,0,0,0,0,3.0897,3.101,3.0995,3.102,3.115,3.1255,3.1272,3.1277,3.1229,3.1285,3.1314,3.1288,3.1503,3.1442,3.1469,3.1545,3.1761,3.1772,3.1783,3.1848,3.187,3.1888,0,0,0,0,0,0,3.096,3.1018,3.1002,3.1138,3.1191,3.1247,3.1317,3.13,3.137,3.136,3.1366,3.1381,3.1508,3.1539,3.1471,3.1691,3.1625,3.1642,3.1666,3.1687,3.1703,3.1693,3.1411,0,0,0,0,0,3.099,3.1069,3.1116,3.1231,3.1259,3.1284,3.133,3.1329,3.1386,3.1409,3.1446,3.1504,3.1584,3.1638,3.1714,3.186,3.1874,3.1925,3.1942,3.1955,3.197,3.2049,3.2072,3.1824,3.1824,3.1824,0,0,3.1052,3.1093,3.1143,3.1245,3.1286,3.1369,3.1303,3.1394,3.1456,3.1423,3.1541,3.1571,3.1636,3.1771,3.1832,3.1801,3.2041,3.1969,3.198,3.1987,3.2063,3.2086,3.2107,3.1832,3.1831,3.1829,0,0,3.1208,3.1247,3.1347,3.139,3.1452,3.1468,3.1493,3.1551,3.1569,3.1687,3.1664,3.1739,3.1878,3.1924,3.1967,3.2141,3.212,3.2166,3.2252,3.2329,3.2349,3.2366,3.2428,3.245,3.218,3.218,3.218,0,3.1277,3.14,3.1401,3.1493,3.1539,3.1511,3.1614,3.1656,3.1742,3.1775,3.1738,3.1911,3.1953,3.2098,3.214,3.2176,3.2204,3.2158,3.2346,3.2363,3.2379,3.2438,3.2462,3.2185,3.2185,3.2184,3.2184,0,3.1482,3.1568,3.1641,3.1722,3.1777,3.1874,3.1892,3.1947,3.1942,3.1962,3.2083,3.2133,3.2218,3.2253,3.225,3.2399,3.2377,3.2343,3.2277,3.2408,3.2464,3.2486,3.2193,3.2191,3.2189,3.2188,0,0,3.1681,3.1761,3.1788,3.1824,3.1892,3.1959,3.2056,3.2138,3.2185,3.2246,3.2327,3.2445,3.2414,3.2462,3.2464,3.2532,3.2666,3.249,3.2491,3.252,3.2834,3.2858,3.2884,3.2653,3.2658,3.2661,3.2828,0,3.1841,3.2007,3.2012,3.2165,3.2245,3.222,3.2304,3.2356,3.2378,3.245,3.2475,3.2558,3.2511,3.254,3.2606,3.2636,3.2729,3.2624,3.273,3.2734,3.2714,3.2913,3.2939,3.3095,3.285,3.2854,3.2856,0,3.205,3.2115,3.2275,3.2331,3.2365,3.244,3.2516,3.2585,3.2644,3.2655,3.2708,3.27,3.2801,3.2732,3.2871,3.2799,3.2843,3.2865,3.2871,3.2881,3.2802,3.2928,3.3144,3.3167,3.2891,3.2888,3.2885,0,3.2177,3.2305,3.2418,3.245,3.2519,3.2572,3.2604,3.2658,3.2707,3.2774,3.2806,3.2885,3.2928,3.2991,3.3005,3.2953,3.3144,3.3076,3.3157,3.3157,3.3198,3.3195,3.3424,3.3228,3.3227,3.3227,3.3226,0,3.2355,3.2454,3.2476,3.2545,3.2656,3.2661,3.2772,3.28,3.2848,3.2924,3.2909,3.298,3.2995,3.307,3.3083,3.3196,3.3216,3.3229,3.3231,3.323,3.3228,3.3258,3.3247,3.3233,3.3232,3.323,3.3229,0,3.2516,3.2534,3.2655,3.271,3.2726,3.2805,3.2853,3.2921,3.2941,3.3037,3.306,3.3092,3.318,3.32,3.3306,3.3314,3.3448,3.344,3.3427,3.3427,3.3506,3.3498,3.3762,3.3797,3.3578,3.358,3.3582,0,3.2627,3.2703,3.2765,3.2814,3.2847,3.2926,3.2975,3.2984,3.3037,3.311,3.3169,3.3254,3.3323,3.3465,3.35,3.358,3.3574,3.3661,3.3586,3.3582,3.3575,3.3569,3.3577,3.3675,3.3677,3.3679,3.368,0,3.2824,3.2829,3.29,3.2974,3.3033,3.3093,3.315,3.3191,3.3208,3.3269,3.3357,3.341,3.3517,3.3603,3.3684,3.3718,3.3703,3.3704,3.3727,3.3726,3.3715,3.3722,3.3465,3.3698,3.3696,3.3695,3.3694,3.3693,3.2963,3.3029,3.3083,3.3162,3.3206,3.3259,3.3325,3.3353,3.3426,3.3512,3.3514,3.361,3.3669,3.3775,3.3815,3.3892,3.3865,3.3899,3.3907,3.3915,3.3922,3.3703,3.3907,3.3907,3.3906,3.3906,3.3906,0,3.3158,3.3191,3.3264,3.3343,3.3407,3.3385,3.3447,3.3502,3.3586,3.3641,3.3708,3.3811,3.3894,3.3935,3.4018,3.4072,3.4067,3.4093,3.4089,3.4097,3.3941,3.3912,3.4096,3.4095,3.4095,3.4095,3.4095,3.4095,3.3266,3.3376,3.3388,3.352,3.3553,3.3646,3.3684,3.3734,3.3777,3.3891,3.3959,3.3985,3.4034,3.4121,3.4197,3.4207,3.4238,3.4268,3.4274,3.4128,3.4108,3.409,3.4063,3.4274,3.4275,3.4424,3.4425,3.4426]},{"header":{"parameterUnit":"m.s-1","parameterCategory":1,"la1":30.2991,"la2":30.254,"lo1":-89.0895,"lo2":-89.0444,"dy":0.0017,"dx":0.0017,"nx":28,"ny":28,"refTime":"2025-03-12T09:00:00:Z","depth":0,"parameterNumber":3,"parameterNumberName":"V-component_of_WINDS"},"data":[0,0,0,0,0,0,0,0,0,0,0,0,0,0,0,0,0,0,0,0,0,0,0,0,0,0,0,0,0,0,0,0,0,0,0,0,0,0,0,0,0,0,0,0,0,0,0,0,0,0,0,0,0,0,0,0,0,0,2.187,2.1872,0,2.2086,2.2089,2.2091,2.2129,2.2127,2.2126,2.2124,2.2347,2.2354,2.2362,0,0,0,0,0,0,0,0,0,0,0,0,0,2.1488,2.1495,2.1869,2.1872,2.1875,2.2086,2.2089,2.2092,2.213,2.2127,2.2125,2.2123,2.2344,2.2353,2.2362,0,0,0,0,0,0,0,0,0,0,0,0,0,2.1674,2.1497,2.1869,2.1919,2.1926,2.2085,2.2089,2.2093,2.213,2.2127,2.2125,2.2122,2.2341,2.2352,2.2364,2.2489,0,0,2.2398,2.2403,0,0,0,0,0,0,0,0,2.1664,2.1688,2.1909,2.1916,2.1924,2.2078,2.2036,2.2226,2.2131,2.2052,2.2124,2.2121,2.2259,2.2277,2.2324,2.2499,2.2509,2.2399,2.2406,2.2411,2.2415,0,0,0,0,0,0,0,2.1651,2.1679,2.1955,2.1912,2.1921,2.1931,2.1954,2.2072,2.2169,2.2059,2.2062,2.2087,2.2263,2.2313,2.233,2.2512,2.2399,2.2409,2.2416,2.2421,2.2801,2.2804,0,0,0,0,0,0,2.1629,2.1668,2.1948,2.1962,2.1784,2.194,2.1966,2.2031,2.2167,2.2186,2.209,2.2088,2.2295,2.2316,2.2338,2.2494,2.2411,2.2422,2.2429,2.2798,2.2802,2.2805,0,0,0,0,0,0,2.162,2.1653,2.194,2.1816,2.1853,2.1949,2.2022,2.2037,2.2087,2.2191,2.2208,2.2123,2.2294,2.2322,2.2451,2.2502,2.2427,2.2438,2.2794,2.2799,2.2803,2.2807,0,0,0,0,0,0,2.1609,2.165,2.1699,2.1817,2.186,2.2049,2.2025,2.2043,2.2107,2.2107,2.2227,2.2244,2.2294,2.2434,2.2462,2.2517,2.2446,2.279,2.2796,2.2802,2.2803,2.2811,2.2819,0,0,0,0,0,2.1595,2.1691,2.1701,2.1735,2.1922,2.2052,2.2077,2.2132,2.2111,2.216,2.2227,2.224,2.2491,2.2447,2.2479,2.2538,2.2787,2.2794,2.2801,2.2799,2.281,2.2818,0,0,0,0,0,0,2.1577,2.1707,2.172,2.1856,2.1943,2.2058,2.2123,2.2141,2.2236,2.2232,2.2297,2.2324,2.245,2.2506,2.2454,2.2666,2.2638,2.2652,2.2625,2.2636,2.2643,2.2628,2.2456,0,0,0,0,0,2.1588,2.1683,2.1792,2.1902,2.1945,2.2026,2.2085,2.212,2.2212,2.2249,2.2325,2.2414,2.2513,2.2577,2.2674,2.281,2.2837,2.2867,2.2874,2.2881,2.2893,2.2969,2.2984,2.2829,2.2829,2.2829,0,0,2.1614,2.1697,2.1753,2.19,2.1971,2.2068,2.2057,2.2159,2.2232,2.2265,2.2392,2.245,2.2554,2.2687,2.275,2.2739,2.2941,2.289,2.2894,2.2903,2.2978,2.2993,2.3006,2.2834,2.2833,2.2832,0,0,2.171,2.1782,2.1882,2.1953,2.2061,2.2114,2.2138,2.2251,2.2291,2.2419,2.2446,2.2533,2.2702,2.2775,2.2834,2.2957,2.2973,2.2987,2.3029,2.3103,2.3115,2.3126,2.3171,2.3186,2.2998,2.2998,2.2998,0,2.1728,2.1875,2.1931,2.2033,2.2097,2.213,2.2232,2.2298,2.2432,2.2476,2.2461,2.2674,2.2747,2.2898,2.2928,2.2974,2.3004,2.2974,2.3109,2.3121,2.3132,2.3175,2.3192,2.2999,2.2999,2.2999,2.2999,0,2.1892,2.1993,2.2061,2.2189,2.2261,2.2362,2.2434,2.25,2.2528,2.2583,2.2713,2.28,2.2916,2.2954,2.2983,2.311,2.3099,2.3096,2.3069,2.3147,2.3189,2.3206,2.3,2.3,2.3,2.2999,0,0,2.1984,2.2141,2.2165,2.2224,2.2345,2.2424,2.2527,2.264,2.2695,2.2786,2.2874,2.3016,2.3014,2.3081,2.3118,2.3182,2.3275,2.3171,2.3175,2.3189,2.3421,2.3424,2.3442,2.3285,2.3289,2.3292,2.3413,0,2.2095,2.2279,2.2332,2.2488,2.2582,2.2615,2.2704,2.2788,2.2842,2.293,2.2989,2.3089,2.3078,2.3119,2.3184,2.325,2.3323,2.3242,2.3369,2.3373,2.3343,2.3464,2.3468,2.3578,2.3429,2.3432,2.3434,0,2.225,2.2344,2.2508,2.2617,2.2659,2.2738,2.2846,2.2929,2.3025,2.3059,2.3134,2.3165,2.3274,2.3239,2.339,2.3333,2.3388,2.3428,2.3434,2.3449,2.3409,2.3484,2.3614,2.3631,2.346,2.3458,2.3456,0,2.2302,2.2469,2.2589,2.2638,2.2768,2.2823,2.288,2.2973,2.3037,2.3131,2.3173,2.3278,2.3336,2.3416,2.3475,2.3445,2.3621,2.3591,2.3653,2.3652,2.369,2.3687,2.3833,2.3723,2.3723,2.3722,2.3722,0,2.2421,2.2521,2.2614,2.2688,2.2801,2.2861,2.2971,2.3029,2.3111,2.3197,2.3231,2.3311,2.3383,2.3473,2.3519,2.3637,2.3663,2.3694,2.3705,2.3692,2.3688,2.373,2.3724,2.3727,2.3726,2.3725,2.3724,0,2.2499,2.2565,2.2699,2.281,2.284,2.2919,2.3014,2.3088,2.3142,2.3251,2.3279,2.3365,2.3472,2.3538,2.3675,2.3706,2.3836,2.3844,2.3804,2.3809,2.3868,2.3862,2.4047,2.4074,2.3945,2.3946,2.3947,0,2.2571,2.2649,2.2769,2.2829,2.2886,2.2982,2.3048,2.3109,2.3176,2.3291,2.335,2.346,2.3551,2.3721,2.3795,2.3899,2.3911,2.3968,2.3927,2.3911,2.3913,2.3908,2.3917,2.3976,2.3977,2.3978,2.3978,0,2.2694,2.2723,2.2816,2.2921,2.2999,2.3084,2.317,2.3217,2.3293,2.3366,2.3477,2.3547,2.3686,2.3794,2.3905,2.3963,2.3984,2.399,2.4011,2.3998,2.3973,2.3989,2.3824,2.3986,2.3986,2.3985,2.3985,2.3984,2.2772,2.2843,2.2938,2.3041,2.3112,2.3191,2.3265,2.3329,2.3422,2.354,2.357,2.3685,2.3779,2.3929,2.399,2.4081,2.4073,2.4102,2.4109,2.4116,2.4118,2.3956,2.4101,2.4101,2.4101,2.4101,2.4101,0,2.2897,2.296,2.3054,2.3173,2.3254,2.3265,2.336,2.3427,2.3529,2.3614,2.3702,2.3829,2.3934,2.4016,2.4124,2.4182,2.4194,2.4208,2.4205,2.4219,2.4118,2.4091,2.4196,2.4196,2.4196,2.4196,2.4196,2.4196,2.2972,2.3092,2.3132,2.3288,2.335,2.3464,2.3517,2.359,2.3659,2.3798,2.3886,2.3939,2.4023,2.4137,2.4234,2.4256,2.4294,2.4307,2.433,2.4236,2.4225,2.4216,2.419,2.4315,2.4315,2.4423,2.4424,2.4425]}]]